Regional Weather Roundup
Issued by NWS Midland/Odessa, TX

Home | Current Version | Previous Version | Text Only | Print | Product List | Glossary On
Versions: 1 2 3 4 5 6 7 8 9 10 11 12 13 14 15 16 17 18 19 20 21 22 23 24 25 26 27 28 29 30 31 32 33 34 35 36 37 38 39 40 41 42 43 44 45 46 47 48 49 50
000
ASUS44 KMAF 271710
RWRMAF
MIDLAND AREA WEATHER ROUNDUP
NATIONAL WEATHER SERVICE MIDLAND TX
1100 AM CST THU NOV 27 2014

...IN SOUTHWEST TEXAS AND SOUTHEAST NEW MEXICO...

CITY           SKY/WX    TMP DP  RH WIND       PRES   REMARKS
ALPINE         SUNNY     62  22  21 E3        30.50S
ANDREWS        FAIR      49  32  51 SE13      30.48S
ARTESIA        NOT AVBL
BIG SPRING     SUNNY     54  32  44 E9        30.52S
CARLSBAD       SUNNY     50  32  50 SE10      30.45F
DRYDEN           N/A     57  33  40 E8        30.46F
FORT STOCKTON  SUNNY     52  32  46 SE3       30.46F
GUAD PASS      NOT AVBL
HOBBS          SUNNY     48  32  53 SE10      30.48S
MARFA          SUNNY     57  19  23 SE7       30.48S
MIDLAND AIRPK  SUNNY     52  34  50 SE8       30.49S
MIDLAND INTL   SUNNY     52  33  48 SE16      30.48S
ODESSA         SUNNY     51  32  48 SE14      30.47F
PECOS          SUNNY     47  30  51 E5        30.47F
PRESIDIO       FAIR      56  27  33 SW3       30.43F
SEMINOLE       SUNNY     49  32  53 S8        30.49F
SNYDER         SUNNY     46  27  46 SE6       30.51F
WINK           SUNNY     52  31  44 SE15      30.45F
$$
...OTHER STATIONS IN TEXAS...

CITY           SKY/WX    TMP DP  RH WIND       PRES   REMARKS
ABILENE        SUNNY     50  25  37 SE7       30.53S
AMARILLO       SUNNY     45  26  47 S20G26    30.42F WCI  37
AUSTIN         SUNNY     55  32  41 NE8       30.53F
BROWNSVILLE    SUNNY     73  54  51 S5        30.43F
CORPUS CHRISTI SUNNY     64  51  62 NE9       30.46S
DALLAS FTW     MOSUNNY   48  24  39 NE6       30.54F
DEL RIO        SUNNY     58  36  43 MISG      30.48F
EL PASO        SUNNY     55  21  26 CALM      30.43S
HOUSTON INT    SUNNY     59  33  37 E5        30.50F
LUBBOCK        SUNNY     44  24  45 S12       30.47F WCI  38
SAN ANGELO     SUNNY     51  32  48 E7        30.52F
SAN ANTONIO    SUNNY     59  29  31 NE9       30.52S
WACO           SUNNY     51  26  37 NE9       30.55S
WICHITA FALLS  NOT AVBL
$$
...OTHER LOCATIONS IN NEW MEXICO...

CITY           SKY/WX    TMP DP  RH WIND       PRES   REMARKS
ALAMAGORDO     MOSUNNY   54  23  30 S5        30.44F
ALBUQUERQUE    SUNNY     42  23  46 NW6       30.48F WCI  38
CANNON AFB     SUNNY     48  30  50 SW13      30.42F
CLOVIS         SUNNY     48  30  49 S16       30.43F
HOLLOMAN AFB   MOSUNNY   51  22  31 VRB2      30.43F
ROSWELL        SUNNY     49  31  49 S14       30.45F
RUIDOSO        SUNNY     54  23  30 NE6       30.49S
SANTA FE       SUNNY     43  22  43 N20       30.46S WCI  34
TRUTH OR CONSE SUNNY     53  21  28 NE7       30.45S
TUCUMCARI      SUNNY     50  30  46 W8        30.38F
$$


USA.gov is the U.S. government's official web portal to all federal, state and local government web resources and services.